owner,sensor,date,latitude,longitude,air_pressure(mBar),qcFlag 
TABS,ioos:station:wmo:42046:1,2012-04-01T00:00:00Z,27.8903,-94.0367,1011.94,11111222 
TABS,ioos:station:wmo:42046:1,2012-04-01T00:30:00Z,27.8903,-94.0367,1012.09,11111222 
TABS,ioos:station:wmo:42046:1,2012-04-01T01:00:00Z,27.8903,-94.0367,1012.01,11111222 
TABS,ioos:station:wmo:42046:1,2012-04-01T01:30:00Z,27.8903,-94.0367,1012.46,11111222 
TABS,ioos:station:wmo:42046:1,2012-04-01T02:00:00Z,27.8903,-94.0367,1012.97,11111222 
TABS,ioos:station:wmo:42046:1,2012-04-01T02:30:00Z,27.8903,-94.0367,1013.06,11111222 
TABS,ioos:station:wmo:42046:1,2012-04-01T03:00:00Z,27.8903,-94.0367,1012.84,11111222 
TABS,ioos:station:wmo:42046:1,2012-04-01T03:30:00Z,27.8903,-94.0367,1012.87,11111222 
TABS,ioos:station:wmo:42046:1,2012-04-01T04:00:00Z,27.8903,-94.0367,1012.83,11111222 
TABS,ioos:station:wmo:42046:1,2012-04-01T04:30:00Z,27.8903,-94.0367,1012.63,11111222 
TABS,ioos:station:wmo:42046:1,2012-04-01T05:00:00Z,27.8903,-94.0367,1012.37,11111222 
TABS,ioos:station:wmo:42046:1,2012-04-01T05:30:00Z,27.8903,-94.0367,1011.97,11111222 
TABS,ioos:station:wmo:42046:1,2012-04-01T06:00:00Z,27.8903,-94.0367,1011.5,11111222 
TABS,ioos:station:wmo:42046:1,2012-04-01T06:30:00Z,27.8903,-94.0367,1011.79,11111222 
TABS,ioos:station:wmo:42046:1,2012-04-01T07:00:00Z,27.8903,-94.0367,1011.62,11111222 
TABS,ioos:station:wmo:42046:1,2012-04-01T07:30:00Z,27.8903,-94.0367,1011.53,11111222 
TABS,ioos:station:wmo:42046:1,2012-04-01T08:00:00Z,27.8903,-94.0367,1011.27,11111222 
TABS,ioos:station:wmo:42046:1,2012-04-01T08:30:00Z,27.8903,-94.0367,1011.06,11111222 
TABS,ioos:station:wmo:42046:1,2012-04-01T09:00:00Z,27.8903,-94.0367,1011.12,11111222 
TABS,ioos:station:wmo:42046:1,2012-04-01T09:30:00Z,27.8903,-94.0367,1010.94,11111222 
TABS,ioos:station:wmo:42046:1,2012-04-01T10:00:00Z,27.8903,-94.0367,1011.08,11111222 
TABS,ioos:station:wmo:42046:1,2012-04-01T10:30:00Z,27.8903,-94.0367,1011.5,11111222 
TABS,ioos:station:wmo:42046:1,2012-04-01T11:00:00Z,27.8903,-94.0367,1011.48,11111222 
TABS,ioos:station:wmo:42046:1,2012-04-01T11:30:00Z,27.8903,-94.0367,1011.38,11111222 
TABS,ioos:station:wmo:42046:1,2012-04-01T12:00:00Z,27.8903,-94.0367,1011.45,11111222 
TABS,ioos:station:wmo:42046:1,2012-04-01T12:30:00Z,27.8903,-94.0367,1011.64,11111222 
TABS,ioos:station:wmo:42046:1,2012-04-01T13:00:00Z,27.8903,-94.0367,1011.86,11111222 
TABS,ioos:station:wmo:42046:1,2012-04-01T13:30:00Z,27.8903,-94.0367,1012.08,11111222 
TABS,ioos:station:wmo:42046:1,2012-04-01T14:00:00Z,27.8903,-94.0367,1012.18,11111222 
TABS,ioos:station:wmo:42046:1,2012-04-01T14:30:00Z,27.8903,-94.0367,1012.35,11111222 
TABS,ioos:station:wmo:42046:1,2012-04-01T15:00:00Z,27.8903,-94.0367,1012.6,11111222 
TABS,ioos:station:wmo:42046:1,2012-04-01T15:30:00Z,27.8903,-94.0367,1012.66,11111222 
TABS,ioos:station:wmo:42046:1,2012-04-01T16:00:00Z,27.8903,-94.0367,1012.63,11111222 
TABS,ioos:station:wmo:42046:1,2012-04-01T16:30:00Z,27.8903,-94.0367,1012.5,11111222 
TABS,ioos:station:wmo:42046:1,2012-04-01T17:00:00Z,27.8903,-94.0367,1012.41,11111222 
TABS,ioos:station:wmo:42046:1,2012-04-01T17:30:00Z,27.8903,-94.0367,1012.14,11111222 
TABS,ioos:station:wmo:42046:1,2012-04-01T18:00:00Z,27.8903,-94.0367,1011.83,11111222 
TABS,ioos:station:wmo:42046:1,2012-04-01T18:30:00Z,27.8903,-94.0367,1011.45,11111222 
TABS,ioos:station:wmo:42046:1,2012-04-01T19:00:00Z,27.8903,-94.0367,1011.17,11111222 
TABS,ioos:station:wmo:42046:1,2012-04-01T19:30:00Z,27.8903,-94.0367,1010.67,11111222 
TABS,ioos:station:wmo:42046:1,2012-04-01T20:00:00Z,27.8903,-94.0367,1010.1,11111222 
TABS,ioos:station:wmo:42046:1,2012-04-01T20:30:00Z,27.8903,-94.0367,1009.6,11111222 
TABS,ioos:station:wmo:42046:1,2012-04-01T21:00:00Z,27.8903,-94.0367,1009.33,11111222 
TABS,ioos:station:wmo:42046:1,2012-04-01T21:30:00Z,27.8903,-94.0367,1008.98,11111222 
TABS,ioos:station:wmo:42046:1,2012-04-01T22:00:00Z,27.8903,-94.0367,1008.66,11111222 
TABS,ioos:station:wmo:42046:1,2012-04-01T22:30:00Z,27.8903,-94.0367,1008.55,11111222 
TABS,ioos:station:wmo:42046:1,2012-04-01T23:00:00Z,27.8903,-94.0367,1008.47,11111222 
TABS,ioos:station:wmo:42046:1,2012-04-01T23:30:00Z,27.8903,-94.0367,1008.45,11111222 
TABS,ioos:station:wmo:42046:1,2012-04-02T00:00:00Z,27.8903,-94.0367,1008.42,11111222 
TABS,ioos:station:wmo:42046:1,2012-04-02T00:30:00Z,27.8903,-94.0367,1008.54,11111222 
TABS,ioos:station:wmo:42046:1,2012-04-02T01:00:00Z,27.8903,-94.0367,1008.43,11111222 
TABS,ioos:station:wmo:42046:1,2012-04-02T01:30:00Z,27.8903,-94.0367,1008.79,11111222 
TABS,ioos:station:wmo:42046:1,2012-04-02T02:00:00Z,27.8903,-94.0367,1008.94,11111222 
TABS,ioos:station:wmo:42046:1,2012-04-02T02:30:00Z,27.8903,-94.0367,1009.47,11111222 
TABS,ioos:station:wmo:42046:1,2012-04-02T03:00:00Z,27.8903,-94.0367,1009.58,11111222 
TABS,ioos:station:wmo:42046:1,2012-04-02T03:30:00Z,27.8903,-94.0367,1009.57,11111222 
TABS,ioos:station:wmo:42046:1,2012-04-02T04:00:00Z,27.8903,-94.0367,1009.34,11111222 
TABS,ioos:station:wmo:42046:1,2012-04-02T04:30:00Z,27.8903,-94.0367,1009.07,11111222 
TABS,ioos:station:wmo:42046:1,2012-04-02T05:00:00Z,27.8903,-94.0367,1009.31,11111222 
TABS,ioos:station:wmo:42046:1,2012-04-02T05:30:00Z,27.8903,-94.0367,1008.96,11111222 
TABS,ioos:station:wmo:42046:1,2012-04-02T06:00:00Z,27.8903,-94.0367,1008.37,11111222 
TABS,ioos:station:wmo:42046:1,2012-04-02T06:30:00Z,27.8903,-94.0367,1007.83,11111222 
TABS,ioos:station:wmo:42046:1,2012-04-02T07:00:00Z,27.8903,-94.0367,1008.07,11111222 
TABS,ioos:station:wmo:42046:1,2012-04-02T07:30:00Z,27.8903,-94.0367,1007.95,11111222 
TABS,ioos:station:wmo:42046:1,2012-04-02T08:00:00Z,27.8903,-94.0367,1007.7,11111222 
TABS,ioos:station:wmo:42046:1,2012-04-02T08:30:00Z,27.8903,-94.0367,1007.64,11111222 
TABS,ioos:station:wmo:42046:1,2012-04-02T09:00:00Z,27.8903,-94.0367,1007.22,11111222 
TABS,ioos:station:wmo:42046:1,2012-04-02T09:30:00Z,27.8903,-94.0367,1007.19,11111222 
TABS,ioos:station:wmo:42046:1,2012-04-02T10:00:00Z,27.8903,-94.0367,1006.73,11111222 
TABS,ioos:station:wmo:42046:1,2012-04-02T10:30:00Z,27.8903,-94.0367,1006.75,11111222 
TABS,ioos:station:wmo:42046:1,2012-04-02T11:00:00Z,27.8903,-94.0367,1006.57,11111222 
TABS,ioos:station:wmo:42046:1,2012-04-02T11:30:00Z,27.8903,-94.0367,1006.7,11111222 
TABS,ioos:station:wmo:42046:1,2012-04-02T12:00:00Z,27.8903,-94.0367,1007.3,11111222 
TABS,ioos:station:wmo:42046:1,2012-04-02T12:30:00Z,27.8903,-94.0367,1007.63,11111222 
TABS,ioos:station:wmo:42046:1,2012-04-02T13:00:00Z,27.8903,-94.0367,1007.82,11111222 
TABS,ioos:station:wmo:42046:1,2012-04-02T13:30:00Z,27.8903,-94.0367,1007.92,11111222 
TABS,ioos:station:wmo:42046:1,2012-04-02T14:00:00Z,27.8903,-94.0367,1008.54,11111222 
TABS,ioos:station:wmo:42046:1,2012-04-02T14:30:00Z,27.8903,-94.0367,1008.97,11111222 
TABS,ioos:station:wmo:42046:1,2012-04-02T15:00:00Z,27.8903,-94.0367,1008.39,11111222 
TABS,ioos:station:wmo:42046:1,2012-04-02T15:30:00Z,27.8903,-94.0367,1009.09,11111222 
TABS,ioos:station:wmo:42046:1,2012-04-02T16:00:00Z,27.8903,-94.0367,1009.42,11111222 
TABS,ioos:station:wmo:42046:1,2012-04-02T16:30:00Z,27.8903,-94.0367,1009.49,11111222 
TABS,ioos:station:wmo:42046:1,2012-04-02T17:00:00Z,27.8903,-94.0367,1009.07,11111222 
TABS,ioos:station:wmo:42046:1,2012-04-02T17:30:00Z,27.8903,-94.0367,1008.41,11111222 
TABS,ioos:station:wmo:42046:1,2012-04-02T18:00:00Z,27.8903,-94.0367,1008.29,11111222 
TABS,ioos:station:wmo:42046:1,2012-04-02T18:30:00Z,27.8903,-94.0367,1007.31,11111222 
TABS,ioos:station:wmo:42046:1,2012-04-02T19:00:00Z,27.8903,-94.0367,1006.83,11111222 
TABS,ioos:station:wmo:42046:1,2012-04-02T19:30:00Z,27.8903,-94.0367,1006.44,11111222 
TABS,ioos:station:wmo:42046:1,2012-04-02T20:00:00Z,27.8903,-94.0367,1006.3,11111222 
TABS,ioos:station:wmo:42046:1,2012-04-02T20:30:00Z,27.8903,-94.0367,1006.02,11111222 
TABS,ioos:station:wmo:42046:1,2012-04-02T21:00:00Z,27.8903,-94.0367,1005.77,11111222 
TABS,ioos:station:wmo:42046:1,2012-04-02T21:30:00Z,27.8903,-94.0367,1005.9,11111222 
TABS,ioos:station:wmo:42046:1,2012-04-02T22:00:00Z,27.8903,-94.0367,1005.77,11111222 
TABS,ioos:station:wmo:42046:1,2012-04-02T22:30:00Z,27.8903,-94.0367,1005.82,11111222 
TABS,ioos:station:wmo:42046:1,2012-04-02T23:00:00Z,27.8903,-94.0367,1005.53,11111222 
TABS,ioos:station:wmo:42046:1,2012-04-02T23:30:00Z,27.8903,-94.0367,1005.65,11111222 
TABS,ioos:station:wmo:42046:1,2012-04-03T00:00:00Z,27.8903,-94.0367,1005.61,11111222 
TABS,ioos:station:wmo:42046:1,2012-04-03T00:30:00Z,27.8903,-94.0367,1005.76,11111222 
TABS,ioos:station:wmo:42046:1,2012-04-03T01:00:00Z,27.8903,-94.0367,1005.73,11111222 
TABS,ioos:station:wmo:42046:1,2012-04-03T01:30:00Z,27.8903,-94.0367,1005.69,11111222 
TABS,ioos:station:wmo:42046:1,2012-04-03T02:00:00Z,27.8903,-94.0367,1005.98,11111222 
TABS,ioos:station:wmo:42046:1,2012-04-03T02:30:00Z,27.8903,-94.0367,1005.81,11111222 
TABS,ioos:station:wmo:42046:1,2012-04-03T03:00:00Z,27.8903,-94.0367,1006.07,11111222 
TABS,ioos:station:wmo:42046:1,2012-04-03T03:30:00Z,27.8903,-94.0367,1006.52,11111222 
TABS,ioos:station:wmo:42046:1,2012-04-03T04:00:00Z,27.8903,-94.0367,1006.62,11111222 
TABS,ioos:station:wmo:42046:1,2012-04-03T04:30:00Z,27.8903,-94.0367,1006.67,11111222 
TABS,ioos:station:wmo:42046:1,2012-04-03T05:00:00Z,27.8903,-94.0367,1006.87,11111222 
TABS,ioos:station:wmo:42046:1,2012-04-03T05:30:00Z,27.8903,-94.0367,1006.88,11111222 
TABS,ioos:station:wmo:42046:1,2012-04-03T06:00:00Z,27.8903,-94.0367,1006.97,11111222 
TABS,ioos:station:wmo:42046:1,2012-04-03T06:30:00Z,27.8903,-94.0367,1006.91,11111222 
TABS,ioos:station:wmo:42046:1,2012-04-03T07:00:00Z,27.8903,-94.0367,1006.8,11111222 
TABS,ioos:station:wmo:42046:1,2012-04-03T07:30:00Z,27.8903,-94.0367,1007.25,11111222 
TABS,ioos:station:wmo:42046:1,2012-04-03T08:00:00Z,27.8903,-94.0367,1007.15,11111222 
TABS,ioos:station:wmo:42046:1,2012-04-03T08:30:00Z,27.8903,-94.0367,1007.6,11111222 
TABS,ioos:station:wmo:42046:1,2012-04-03T09:00:00Z,27.8903,-94.0367,1008.16,11111222 
TABS,ioos:station:wmo:42046:1,2012-04-03T09:30:00Z,27.8903,-94.0367,1008.39,11111222 
TABS,ioos:station:wmo:42046:1,2012-04-03T10:00:00Z,27.8903,-94.0367,1008.88,11111222 
TABS,ioos:station:wmo:42046:1,2012-04-03T10:30:00Z,27.8903,-94.0367,1009.11,11111222 
TABS,ioos:station:wmo:42046:1,2012-04-03T11:00:00Z,27.8903,-94.0367,1008.76,11111222 
TABS,ioos:station:wmo:42046:1,2012-04-03T11:30:00Z,27.8903,-94.0367,1008.76,11111222 
TABS,ioos:station:wmo:42046:1,2012-04-03T12:00:00Z,27.8903,-94.0367,1008.84,11111222 
TABS,ioos:station:wmo:42046:1,2012-04-03T12:30:00Z,27.8903,-94.0367,1008.9,11111222 
TABS,ioos:station:wmo:42046:1,2012-04-03T13:00:00Z,27.8903,-94.0367,1009.18,11111222 
TABS,ioos:station:wmo:42046:1,2012-04-03T13:30:00Z,27.8903,-94.0367,1009.46,11111222 
TABS,ioos:station:wmo:42046:1,2012-04-03T14:00:00Z,27.8903,-94.0367,1009.51,11111222 
TABS,ioos:station:wmo:42046:1,2012-04-03T14:30:00Z,27.8903,-94.0367,1009.72,11111222 
TABS,ioos:station:wmo:42046:1,2012-04-03T15:00:00Z,27.8903,-94.0367,1010.1,11111222 
TABS,ioos:station:wmo:42046:1,2012-04-03T15:30:00Z,27.8903,-94.0367,1010.24,11111222 
TABS,ioos:station:wmo:42046:1,2012-04-03T16:00:00Z,27.8903,-94.0367,1010.37,11111222 
TABS,ioos:station:wmo:42046:1,2012-04-03T16:30:00Z,27.8903,-94.0367,1010.42,11111222 
TABS,ioos:station:wmo:42046:1,2012-04-03T17:00:00Z,27.8903,-94.0367,1009.77,11111222 
TABS,ioos:station:wmo:42046:1,2012-04-03T17:30:00Z,27.8903,-94.0367,1009.24,11111222 
TABS,ioos:station:wmo:42046:1,2012-04-03T18:00:00Z,27.8903,-94.0367,1009.2,11111222 
TABS,ioos:station:wmo:42046:1,2012-04-03T18:30:00Z,27.8903,-94.0367,1009.33,11111222 
TABS,ioos:station:wmo:42046:1,2012-04-03T19:00:00Z,27.8903,-94.0367,1009.26,11111222 
TABS,ioos:station:wmo:42046:1,2012-04-03T19:30:00Z,27.8903,-94.0367,1009.14,11111222 
TABS,ioos:station:wmo:42046:1,2012-04-03T20:00:00Z,27.8903,-94.0367,1009.03,11111222 
TABS,ioos:station:wmo:42046:1,2012-04-03T20:30:00Z,27.8903,-94.0367,1008.89,11111222 
TABS,ioos:station:wmo:42046:1,2012-04-03T21:00:00Z,27.8903,-94.0367,1008.52,11111222 
TABS,ioos:station:wmo:42046:1,2012-04-03T21:30:00Z,27.8903,-94.0367,1008.3,11111222 
TABS,ioos:station:wmo:42046:1,2012-04-03T22:00:00Z,27.8903,-94.0367,1008.08,11111222 
TABS,ioos:station:wmo:42046:1,2012-04-03T22:30:00Z,27.8903,-94.0367,1008.21,11111222 
TABS,ioos:station:wmo:42046:1,2012-04-03T23:00:00Z,27.8903,-94.0367,1008.12,11111222 
TABS,ioos:station:wmo:42046:1,2012-04-03T23:30:00Z,27.8903,-94.0367,1007.9,11111222 
TABS,ioos:station:wmo:42046:1,2012-04-04T00:00:00Z,27.8903,-94.0367,1007.93,11111222 
TABS,ioos:station:wmo:42046:1,2012-04-04T00:30:00Z,27.8903,-94.0367,1007.79,11111222 
TABS,ioos:station:wmo:42046:1,2012-04-04T01:00:00Z,27.8903,-94.0367,1008.03,11111222 
TABS,ioos:station:wmo:42046:1,2012-04-04T01:30:00Z,27.8903,-94.0367,1008.27,11111222 
TABS,ioos:station:wmo:42046:1,2012-04-04T02:00:00Z,27.8903,-94.0367,1008.69,11111222 
TABS,ioos:station:wmo:42046:1,2012-04-04T02:30:00Z,27.8903,-94.0367,1008.99,11111222 
TABS,ioos:station:wmo:42046:1,2012-04-04T03:00:00Z,27.8903,-94.0367,1009.44,11111222 
TABS,ioos:station:wmo:42046:1,2012-04-04T03:30:00Z,27.8903,-94.0367,1009.68,11111222 
TABS,ioos:station:wmo:42046:1,2012-04-04T04:00:00Z,27.8903,-94.0367,1009.64,11111222 
TABS,ioos:station:wmo:42046:1,2012-04-04T04:30:00Z,27.8903,-94.0367,1009.41,11111222 
TABS,ioos:station:wmo:42046:1,2012-04-04T05:00:00Z,27.8903,-94.0367,1009.94,11111222 
TABS,ioos:station:wmo:42046:1,2012-04-04T05:30:00Z,27.8903,-94.0367,1010.11,11111222 
TABS,ioos:station:wmo:42046:1,2012-04-04T06:00:00Z,27.8903,-94.0367,1009.91,11111222 
TABS,ioos:station:wmo:42046:1,2012-04-04T06:30:00Z,27.8903,-94.0367,1009.94,11111222 
TABS,ioos:station:wmo:42046:1,2012-04-04T07:00:00Z,27.8903,-94.0367,1009.54,11111222 
TABS,ioos:station:wmo:42046:1,2012-04-04T07:30:00Z,27.8903,-94.0367,1009.7,11111222 
TABS,ioos:station:wmo:42046:1,2012-04-04T08:00:00Z,27.8903,-94.0367,1010.07,11111222 
TABS,ioos:station:wmo:42046:1,2012-04-04T08:30:00Z,27.8903,-94.0367,1010.05,11111222 
TABS,ioos:station:wmo:42046:1,2012-04-04T09:00:00Z,27.8903,-94.0367,1009.86,11111222 
TABS,ioos:station:wmo:42046:1,2012-04-04T09:30:00Z,27.8903,-94.0367,1009.66,11111222 
TABS,ioos:station:wmo:42046:1,2012-04-04T10:00:00Z,27.8903,-94.0367,1009.5,11111222 
TABS,ioos:station:wmo:42046:1,2012-04-04T10:30:00Z,27.8903,-94.0367,1009.87,11111222 
TABS,ioos:station:wmo:42046:1,2012-04-04T11:00:00Z,27.8903,-94.0367,1010.07,11111222 
TABS,ioos:station:wmo:42046:1,2012-04-04T11:30:00Z,27.8903,-94.0367,1010.25,11111222 
TABS,ioos:station:wmo:42046:1,2012-04-04T12:00:00Z,27.8903,-94.0367,1010.7,11111222 
TABS,ioos:station:wmo:42046:1,2012-04-04T12:30:00Z,27.8903,-94.0367,1010.51,11111222 
TABS,ioos:station:wmo:42046:1,2012-04-04T13:00:00Z,27.8903,-94.0367,1010.71,11111222 
TABS,ioos:station:wmo:42046:1,2012-04-04T13:30:00Z,27.8903,-94.0367,1010.84,11111222 
TABS,ioos:station:wmo:42046:1,2012-04-04T14:00:00Z,27.8903,-94.0367,1011.1,11111222 
TABS,ioos:station:wmo:42046:1,2012-04-04T14:30:00Z,27.8903,-94.0367,1011.32,11111222 
TABS,ioos:station:wmo:42046:1,2012-04-04T15:00:00Z,27.8903,-94.0367,1011.65,11111222 
TABS,ioos:station:wmo:42046:1,2012-04-04T15:30:00Z,27.8903,-94.0367,1012.16,11111222 
TABS,ioos:station:wmo:42046:1,2012-04-04T16:00:00Z,27.8903,-94.0367,1012.17,11111222 
TABS,ioos:station:wmo:42046:1,2012-04-04T16:30:00Z,27.8903,-94.0367,1012.19,11111222 
TABS,ioos:station:wmo:42046:1,2012-04-04T17:00:00Z,27.8903,-94.0367,1011.62,11111222 
TABS,ioos:station:wmo:42046:1,2012-04-04T17:30:00Z,27.8903,-94.0367,1010.81,11111222 
TABS,ioos:station:wmo:42046:1,2012-04-04T18:00:00Z,27.8903,-94.0367,1010.01,11111222 
TABS,ioos:station:wmo:42046:1,2012-04-04T18:30:00Z,27.8903,-94.0367,1009.5,11111222 
TABS,ioos:station:wmo:42046:1,2012-04-04T19:00:00Z,27.8903,-94.0367,1009.33,11111222 
TABS,ioos:station:wmo:42046:1,2012-04-04T19:30:00Z,27.8903,-94.0367,1008.85,11111222 
TABS,ioos:station:wmo:42046:1,2012-04-04T20:00:00Z,27.8903,-94.0367,1008.45,11111222 
TABS,ioos:station:wmo:42046:1,2012-04-04T20:30:00Z,27.8903,-94.0367,1008.13,11111222 
TABS,ioos:station:wmo:42046:1,2012-04-04T21:00:00Z,27.8903,-94.0367,1008.11,11111222 
TABS,ioos:station:wmo:42046:1,2012-04-04T21:30:00Z,27.8903,-94.0367,1008.1,11111222 
TABS,ioos:station:wmo:42046:1,2012-04-04T22:00:00Z,27.8903,-94.0367,1007.72,11111222 
TABS,ioos:station:wmo:42046:1,2012-04-04T22:30:00Z,27.8903,-94.0367,1007.45,11111222 
TABS,ioos:station:wmo:42046:1,2012-04-04T23:00:00Z,27.8903,-94.0367,1007.26,11111222 
TABS,ioos:station:wmo:42046:1,2012-04-04T23:30:00Z,27.8903,-94.0367,1007.6,11111222 
TABS,ioos:station:wmo:42046:1,2012-04-05T00:00:00Z,27.8903,-94.0367,1007.63,11111222 
TABS,ioos:station:wmo:42046:1,2012-04-05T00:30:00Z,27.8903,-94.0367,1007.13,11111222 
TABS,ioos:station:wmo:42046:1,2012-04-05T01:00:00Z,27.8903,-94.0367,1009.1,11111222 
TABS,ioos:station:wmo:42046:1,2012-04-05T01:30:00Z,27.8903,-94.0367,1009.44,11111222 
TABS,ioos:station:wmo:42046:1,2012-04-05T02:00:00Z,27.8903,-94.0367,1009.98,11111222 
TABS,ioos:station:wmo:42046:1,2012-04-05T02:30:00Z,27.8903,-94.0367,1010.19,11111222 
TABS,ioos:station:wmo:42046:1,2012-04-05T03:00:00Z,27.8903,-94.0367,1009.07,11111222 
TABS,ioos:station:wmo:42046:1,2012-04-05T03:30:00Z,27.8903,-94.0367,1008.96,11111222 
TABS,ioos:station:wmo:42046:1,2012-04-05T04:00:00Z,27.8903,-94.0367,1008.48,11111222 
TABS,ioos:station:wmo:42046:1,2012-04-05T04:30:00Z,27.8903,-94.0367,1008.54,11111222 
TABS,ioos:station:wmo:42046:1,2012-04-05T05:00:00Z,27.8903,-94.0367,1008.52,11111222 
TABS,ioos:station:wmo:42046:1,2012-04-05T05:30:00Z,27.8903,-94.0367,1008.83,11111222 
TABS,ioos:station:wmo:42046:1,2012-04-05T06:00:00Z,27.8903,-94.0367,1008.67,11111222 
TABS,ioos:station:wmo:42046:1,2012-04-05T06:30:00Z,27.8903,-94.0367,1008.91,11111222 
TABS,ioos:station:wmo:42046:1,2012-04-05T07:00:00Z,27.8903,-94.0367,1008.69,11111222 
TABS,ioos:station:wmo:42046:1,2012-04-05T07:30:00Z,27.8903,-94.0367,1008.53,11111222 
TABS,ioos:station:wmo:42046:1,2012-04-05T08:00:00Z,27.8903,-94.0367,1008.81,11111222 
TABS,ioos:station:wmo:42046:1,2012-04-05T08:30:00Z,27.8903,-94.0367,1008.9,11111222 
TABS,ioos:station:wmo:42046:1,2012-04-05T09:00:00Z,27.8903,-94.0367,1008.84,11111222 
TABS,ioos:station:wmo:42046:1,2012-04-05T09:30:00Z,27.8903,-94.0367,1008.54,11111222 
TABS,ioos:station:wmo:42046:1,2012-04-05T10:00:00Z,27.8903,-94.0367,1008.74,11111222 
TABS,ioos:station:wmo:42046:1,2012-04-05T10:30:00Z,27.8903,-94.0367,1008.6,11111222 
TABS,ioos:station:wmo:42046:1,2012-04-05T11:00:00Z,27.8903,-94.0367,1009.11,11111222 
TABS,ioos:station:wmo:42046:1,2012-04-05T11:30:00Z,27.8903,-94.0367,1009.32,11111222 
TABS,ioos:station:wmo:42046:1,2012-04-05T12:00:00Z,27.8903,-94.0367,1009.7,11111222 
TABS,ioos:station:wmo:42046:1,2012-04-05T12:30:00Z,27.8903,-94.0367,1009.95,11111222 
TABS,ioos:station:wmo:42046:1,2012-04-05T13:00:00Z,27.8903,-94.0367,1010.32,11111222 
TABS,ioos:station:wmo:42046:1,2012-04-05T13:30:00Z,27.8903,-94.0367,1010.14,11111222 
TABS,ioos:station:wmo:42046:1,2012-04-05T14:00:00Z,27.8903,-94.0367,1009.91,11111222 
TABS,ioos:station:wmo:42046:1,2012-04-05T14:30:00Z,27.8903,-94.0367,1010.25,11111222 
TABS,ioos:station:wmo:42046:1,2012-04-05T15:00:00Z,27.8903,-94.0367,1010.52,11111222 
TABS,ioos:station:wmo:42046:1,2012-04-05T15:30:00Z,27.8903,-94.0367,1010.75,11111222 
TABS,ioos:station:wmo:42046:1,2012-04-05T16:00:00Z,27.8903,-94.0367,1010.87,11111222 
TABS,ioos:station:wmo:42046:1,2012-04-05T16:30:00Z,27.8903,-94.0367,1010.79,11111222 
TABS,ioos:station:wmo:42046:1,2012-04-05T17:00:00Z,27.8903,-94.0367,1010.96,11111222 
TABS,ioos:station:wmo:42046:1,2012-04-05T17:30:00Z,27.8903,-94.0367,1010.62,11111222 
TABS,ioos:station:wmo:42046:1,2012-04-05T18:00:00Z,27.8903,-94.0367,1010.66,11111222 
TABS,ioos:station:wmo:42046:1,2012-04-05T18:30:00Z,27.8903,-94.0367,1010.66,11111222 
TABS,ioos:station:wmo:42046:1,2012-04-05T19:00:00Z,27.8903,-94.0367,1010.42,11111222 
TABS,ioos:station:wmo:42046:1,2012-04-05T19:30:00Z,27.8903,-94.0367,1010.09,11111222 
TABS,ioos:station:wmo:42046:1,2012-04-05T20:00:00Z,27.8903,-94.0367,1009.8,11111222 
TABS,ioos:station:wmo:42046:1,2012-04-05T20:30:00Z,27.8903,-94.0367,1009.39,11111222 
TABS,ioos:station:wmo:42046:1,2012-04-05T21:00:00Z,27.8903,-94.0367,1009.06,11111222 
TABS,ioos:station:wmo:42046:1,2012-04-05T21:30:00Z,27.8903,-94.0367,1009.1,11111222 
TABS,ioos:station:wmo:42046:1,2012-04-05T22:00:00Z,27.8903,-94.0367,1009.22,11111222 
TABS,ioos:station:wmo:42046:1,2012-04-05T22:30:00Z,27.8903,-94.0367,1009.27,11111222 
TABS,ioos:station:wmo:42046:1,2012-04-05T23:00:00Z,27.8903,-94.0367,1009.41,11111222 
TABS,ioos:station:wmo:42046:1,2012-04-05T23:30:00Z,27.8903,-94.0367,1009.15,11111222 
TABS,ioos:station:wmo:42046:1,2012-04-06T00:00:00Z,27.8903,-94.0367,1009.59,11111222 
TABS,ioos:station:wmo:42046:1,2012-04-06T00:30:00Z,27.8903,-94.0367,1009.46,11111222 
TABS,ioos:station:wmo:42046:1,2012-04-06T01:00:00Z,27.8903,-94.0367,1009.68,11111222 
TABS,ioos:station:wmo:42046:1,2012-04-06T01:30:00Z,27.8903,-94.0367,1009.88,11111222 
TABS,ioos:station:wmo:42046:1,2012-04-06T02:00:00Z,27.8903,-94.0367,1010.21,11111222 
TABS,ioos:station:wmo:42046:1,2012-04-06T02:30:00Z,27.8903,-94.0367,1010.53,11111222 
TABS,ioos:station:wmo:42046:1,2012-04-06T03:00:00Z,27.8903,-94.0367,1010.95,11111222 
TABS,ioos:station:wmo:42046:1,2012-04-06T03:30:00Z,27.8903,-94.0367,1011.1,11111222 
TABS,ioos:station:wmo:42046:1,2012-04-06T04:00:00Z,27.8903,-94.0367,1011.32,11111222 
TABS,ioos:station:wmo:42046:1,2012-04-06T04:30:00Z,27.8903,-94.0367,1011.66,11111222 
TABS,ioos:station:wmo:42046:1,2012-04-06T05:00:00Z,27.8903,-94.0367,1011.92,11111222 
TABS,ioos:station:wmo:42046:1,2012-04-06T05:30:00Z,27.8903,-94.0367,1012.06,11111222 
TABS,ioos:station:wmo:42046:1,2012-04-06T06:00:00Z,27.8903,-94.0367,1012.19,11111222 
TABS,ioos:station:wmo:42046:1,2012-04-06T06:30:00Z,27.8903,-94.0367,1011.88,11111222 
TABS,ioos:station:wmo:42046:1,2012-04-06T07:00:00Z,27.8903,-94.0367,1011.75,11111222 
TABS,ioos:station:wmo:42046:1,2012-04-06T07:30:00Z,27.8903,-94.0367,1011.74,11111222 
TABS,ioos:station:wmo:42046:1,2012-04-06T08:00:00Z,27.8903,-94.0367,1011.46,11111222 
TABS,ioos:station:wmo:42046:1,2012-04-06T08:30:00Z,27.8903,-94.0367,1011.22,11111222 
TABS,ioos:station:wmo:42046:1,2012-04-06T09:00:00Z,27.8903,-94.0367,1011.32,11111222 
TABS,ioos:station:wmo:42046:1,2012-04-06T09:30:00Z,27.8903,-94.0367,1011.58,11111222 
TABS,ioos:station:wmo:42046:1,2012-04-06T10:00:00Z,27.8903,-94.0367,1011.58,11111222 
TABS,ioos:station:wmo:42046:1,2012-04-06T10:30:00Z,27.8903,-94.0367,1012.04,11111222 
TABS,ioos:station:wmo:42046:1,2012-04-06T11:00:00Z,27.8903,-94.0367,1012.3,11111222 
TABS,ioos:station:wmo:42046:1,2012-04-06T11:30:00Z,27.8903,-94.0367,1012.34,11111222 
TABS,ioos:station:wmo:42046:1,2012-04-06T12:00:00Z,27.8903,-94.0367,1012.75,11111222 
TABS,ioos:station:wmo:42046:1,2012-04-06T12:30:00Z,27.8903,-94.0367,1013.38,11111222 
TABS,ioos:station:wmo:42046:1,2012-04-06T13:00:00Z,27.8903,-94.0367,1013.66,11111222 
TABS,ioos:station:wmo:42046:1,2012-04-06T13:30:00Z,27.8903,-94.0367,1013.9,11111222 
TABS,ioos:station:wmo:42046:1,2012-04-06T14:00:00Z,27.8903,-94.0367,1014.14,11111222 
TABS,ioos:station:wmo:42046:1,2012-04-06T14:30:00Z,27.8903,-94.0367,1014.37,11111222 
TABS,ioos:station:wmo:42046:1,2012-04-06T15:00:00Z,27.8903,-94.0367,1014.65,11111222 
TABS,ioos:station:wmo:42046:1,2012-04-06T15:30:00Z,27.8903,-94.0367,1014.87,11111222 
TABS,ioos:station:wmo:42046:1,2012-04-06T16:00:00Z,27.8903,-94.0367,1015.19,11111222 
TABS,ioos:station:wmo:42046:1,2012-04-06T16:30:00Z,27.8903,-94.0367,1015.21,11111222 
TABS,ioos:station:wmo:42046:1,2012-04-06T17:00:00Z,27.8903,-94.0367,1015.16,11111222 
TABS,ioos:station:wmo:42046:1,2012-04-06T17:30:00Z,27.8903,-94.0367,1015.1,11111222 
TABS,ioos:station:wmo:42046:1,2012-04-06T18:00:00Z,27.8903,-94.0367,1015.04,11111222 
TABS,ioos:station:wmo:42046:1,2012-04-06T18:30:00Z,27.8903,-94.0367,1014.91,11111222 